Regional Weather Roundup
Issued by NWS Charleston, WV

Home | Current Version | Previous Version | Text Only | Print | Product List | Glossary Off
Versions: 1 2 3 4 5 6 7 8 9 10 11 12 13 14 15 16 17 18 19 20 21 22 23 24 25 26 27 28 29 30 31 32 33 34 35 36 37 38 39 40 41 42 43 44 45 46 47 48 49 50

000
ASUS41 KRLX 180710
RWRRLX
West Virginia Regional Weather Roundup
National Weather Service Charleston WV
300 AM EDT SAT APR 18 2015

Note: "fair" indicates few or no clouds below 12,000 feet with no
significant weather and/or obstructions to visibility.

WVZ003-180800-
Northern Panhandle of West Virginia

CITY           SKY/WX    TMP DP  RH WIND       PRES   REMARKS
WHEELING       PTCLDY    57  46  66 CALM      30.02F
$$

WVZ009-180800-
Northwest West Virginia

CITY           SKY/WX    TMP DP  RH WIND       PRES   REMARKS
PARKERSBURG    PTCLDY    53  49  86 CALM      30.03F
$$

WVZ006-180800-
Western West Virginia

CITY           SKY/WX    TMP DP  RH WIND       PRES   REMARKS
HUNTINGTON     PTCLDY    58  51  78 CALM      30.01R
$$

WVZ015-180800-
West Central West Virginia

CITY           SKY/WX    TMP DP  RH WIND       PRES   REMARKS
CHARLESTON     PTCLDY    57  54  89 CALM      30.00F
$$

WVZ022-031-180800-
North Central West Virginia

CITY           SKY/WX    TMP DP  RH WIND       PRES   REMARKS
CLARKSBURG     FOG       50  50 100 NE5       30.01F VSB 1/4
MORGANTOWN     FOG       53  50  89 CALM      30.03F VSB 1/4
$$

WVZ025-035-042-045-180800-
Southern West Virginia

CITY           SKY/WX    TMP DP  RH WIND       PRES   REMARKS
BECKLEY        CLEAR     52  49  89 CALM      30.05F
LOGAN            N/A     61  55  82 CALM      29.99S
BLUEFIELD      CLEAR     60  50  69 CALM      30.06F
LEWISBURG      PTCLDY    53  50  89 N3        30.04F
$$

WVZ047-180800-
Northern Mountains of West Virginia

CITY           SKY/WX    TMP DP  RH WIND       PRES   REMARKS
ELKINS         FOG       49  48  97 CALM      30.05F VSB 1/4
$$

WVZ052-180800-
Eastern Panhandle of West Virginia

CITY           SKY/WX    TMP DP  RH WIND       PRES   REMARKS
MARTINSBURG    PTCLDY    55  50  83 W3        30.00F
PETERSBURG     MOCLDY    50  47  88 CALM      30.04F FOG
$$


USA.gov is the U.S. government's official web portal to all federal, state and local government web resources and services.